Meteo Giornale » Osservazioni meteo Olanda » Goeree Le Sea
ore: 09:25 - Osservazioni Meteo Goeree Le Sea
Lat. 51° 56' N Lon. 3° 40' E Alt. 50 metri s.l.m.
18 °C
Sereno
Temp. 24 Ore
17 °C
21 °C
Ovest/Nord-Ovest
25.9 Km/h
Dew point 11 °C
Umidità 63 %
Visibilità 10 Km
Il sole sorge alle ore 06:57
Il sole tramonta alle ore 20:33
| Data e Ora | Cielo e Fenomeni | T °C | DP °C | Um. % | Pres. hPa | Vis. km | Vento km/h | |
|---|---|---|---|---|---|---|---|---|
| Oggi h: 09:25 | Sereno | 18 | 11 | 63 | 1019 | 10 | O/NO 25.9 | |
| Oggi h: 08:55 | Sereno | 18 | 12 | 67 | 1019 | 10 | O/NO 24 | |
| Oggi h: 08:25 | Sereno | 18 | 12 | 67 | 1019 | 10 | O/NO 27.8 | |
| Oggi h: 07:55 | Sereno | 18 | 12 | 67 | 1018 | 10 | O/NO 27.8 | |
| Oggi h: 07:25 | Sereno | 18 | 12 | 67 | 1018 | 10 | O/NO 27.8 | |
| Oggi h: 06:55 | Sereno | 18 | 12 | 67 | 1018 | 10 | O/NO 27.8 | |
| Oggi h: 06:25 | Sereno | 18 | 12 | 67 | 1017 | 10 | O/NO 27.8 | |
| Oggi h: 05:55 | Sereno | 19 | 12 | 63 | 1017 | 10 | O/NO 29.6 | |
| Oggi h: 05:25 | Sereno | 19 | 13 | 68 | 1017 | 10 | O/NO 29.6 | |
| Oggi h: 04:55 | Sereno | 19 | 14 | 72 | 1017 | 10 | O/NO 25.9 | |
| Oggi h: 04:25 | Sereno | 19 | 14 | 72 | 1017 | 10 | NO 25.9 | |
| Oggi h: 03:55 | Sereno | 19 | 14 | 72 | 1017 | 10 | NO 29.6 | |
| Oggi h: 03:25 | Sereno | 19 | 14 | 72 | 1017 | 10 | NO 31.5 | |
| Oggi h: 02:55 | Sereno | 19 | 15 | 77 | 1017 | 10 | NO 24 | |
| Oggi h: 02:25 | Sereno | 18 | 14 | 77 | 1017 | 10 | N/NO 27.8 | |
| Oggi h: 01:55 | Sereno | 20 | 15 | 72 | 1016 | 10 | O/NO 14.8 | |
| Oggi h: 01:25 | Sereno | 20 | 15 | 72 | 1016 | 10 | O/NO 20.3 | |
| Oggi h: 00:55 | Sereno | 20 | 15 | 72 | 1016 | 10 | O/NO 24 | |
| Oggi h: 00:25 | Sereno | 20 | 15 | 72 | 1016 | 10 | O/NO 22.2 | |
| Ieri h: 23:55 | Sereno | 20 | 15 | 72 | 1016 | 10 | NO 22.2 | |
| Ieri h: 23:25 | Sereno | 19 | 16 | 82 | 1016 | 10 | N/NO 22.2 | |
| Ieri h: 22:55 | Sereno | 20 | 16 | 77 | 1016 | 10 | N/NO 31.5 | |
| Ieri h: 22:25 | Sereno | 21 | 15 | 68 | 1015 | 10 | O 35.2 | |
| Ieri h: 21:55 | Sereno | 21 | 15 | 68 | 1015 | 10 | O/SO 38.8 | |
| Ieri h: 21:25 | Sereno | 21 | 15 | 68 | 1015 | 10 | O/SO 40.7 | |
| Ieri h: 20:55 | Sereno | 21 | 15 | 68 | 1014 | 10 | O 42.6 | |
| Ieri h: 20:25 | Sereno | 21 | 14 | 64 | 1014 | 10 | O 37 | |
| Ieri h: 19:55 | Sereno | 21 | 14 | 64 | 1014 | 10 | O/SO 38.8 | |
| Ieri h: 19:25 | Sereno | 21 | 13 | 60 | 1013 | 10 | O/SO 44.4 | |
| Ieri h: 18:55 | Sereno | 20 | 13 | 64 | 1013 | 10 | O/SO 42.6 | |
| Ieri h: 18:25 | Sereno | 20 | 13 | 64 | 1013 | 10 | O 44.4 | |
| Ieri h: 17:55 | Sereno | 20 | 14 | 68 | 1013 | 10 | O 42.6 | |
| Ieri h: 17:25 | Sereno | 20 | 13 | 64 | 1013 | 10 | O 46.3 | |
| Ieri h: 16:55 | Sereno | 20 | 14 | 68 | 1012 | 10 | O 50 | |
| Ieri h: 16:25 | Sereno | 19 | 13 | 68 | 1012 | 10 | O 48.1 | |
| Ieri h: 15:55 | Sereno | 19 | 13 | 68 | 1011 | 10 | O 50 | |
| Ieri h: 15:25 | Sereno | 19 | 13 | 68 | 1011 | 10 | O 50 | |
| Ieri h: 14:55 | Sereno | 19 | 13 | 68 | 1011 | 10 | O 48.1 | |
| Ieri h: 14:25 | Sereno | 18 | 13 | 72 | 1010 | 10 | O 48.1 | |
| Ieri h: 13:55 | Sereno | 18 | 13 | 72 | 1010 | 10 | O 51.8 | |
| Ieri h: 13:25 | Sereno | 18 | 13 | 72 | 1009 | 10 | O 50 | |
| Ieri h: 12:55 | Sereno | 18 | 13 | 72 | 1009 | 10 | O 50 | |
| Ieri h: 12:25 | Sereno | 18 | 13 | 72 | 1008 | 10 | O/SO 51.8 | |
| Ieri h: 11:55 | Pioggia | 17 | 14 | 82 | 1008 | 10 | O/SO 48.1 | |
| Ieri h: 11:25 | Pioggia | 18 | 13 | 72 | 1008 | 9 | O/SO 53.7 | |
| Ieri h: 10:55 | Sereno | 18 | 13 | 72 | 1007 | 10 | O/SO 53.7 | |
| Ieri h: 10:25 | Sereno | 18 | 13 | 72 | 1007 | 10 | SO 55.5 | |
| Ieri h: 09:55 | Sereno | 19 | 13 | 68 | 1006 | 10 | SO 61.1 | |



